Stations météo

réclame
Mon MeteoGroup
Braemar, Grande-Bretagne (99089): Température de l'air & dewpoint: 19.04.2018 02:00:00 - 25.04.2018 02:00:00 (BST)Braemar, Grande-Bretagne (99089): Température de l'air -20cm & Température de l'air -100cm: 19.04.2018 02:00:00 - 25.04.2018 02:00:00 (BST)Braemar, Grande-Bretagne (99089): Quantités de précipitations: 19.04.2018 02:00:00 - 25.04.2018 02:00:00 (BST)
Date & Time tt [°C] td [°C] tt -20cm [°C] tt -100cm [°C] rr [mm]
25.04.2018 02:00:00 - - - - -
25.04.2018 01:00:00 1,9 1,4 - - 0,0
25.04.2018 00:00:00 1,8 1,2 - - 0,0
24.04.2018 23:00:00 2,1 1,4 - - 0,0
24.04.2018 22:00:00 3,5 2,4 - - 0,6
24.04.2018 21:00:00 5,5 3,5 - - 1,0
24.04.2018 20:00:00 7,7 2,4 - - 0,0
24.04.2018 19:00:00 9,0 2,1 - - 0,0
24.04.2018 18:00:00 10,3 2,7 - - 0,0
24.04.2018 17:00:00 10,0 2,2 - - 0,0
24.04.2018 16:00:00 10,5 1,6 - - 0,0
24.04.2018 15:00:00 10,2 1,9 - - 0,0
24.04.2018 14:00:00 11,4 2,2 - - 0,0
24.04.2018 13:00:00 11,0 2,2 - - 0,0
24.04.2018 12:00:00 9,8 1,0 - - 0,0
24.04.2018 11:00:00 7,9 1,6 - - 0,0
24.04.2018 10:00:00 7,2 2,1 8,0 6,7 0,0
24.04.2018 09:00:00 7,4 2,9 - - 0,0
24.04.2018 08:00:00 6,4 2,0 - - 0,0
24.04.2018 07:00:00 5,9 2,0 - - 0,0
24.04.2018 06:00:00 5,0 1,7 - - 0,0
24.04.2018 05:00:00 5,4 2,0 - - 0,0
24.04.2018 04:00:00 5,2 2,5 - - 0,0
24.04.2018 03:00:00 5,7 2,1 - - 0,0
24.04.2018 02:00:00 5,6 3,2 - - 0,0
24.04.2018 01:00:00 6,1 2,5 - - 0,0
24.04.2018 00:00:00 7,9 5,5 - - 0,2
23.04.2018 23:00:00 8,7 6,1 - - 0,0
23.04.2018 22:00:00 8,4 5,8 - - 0,0
23.04.2018 21:00:00 7,7 5,7 - - 0,0
23.04.2018 20:00:00 8,0 4,9 - - 0,0
23.04.2018 19:00:00 7,4 4,3 - - 0,2
23.04.2018 18:00:00 8,1 4,6 - - 0,2
23.04.2018 17:00:00 9,0 2,8 - - 0,0
23.04.2018 16:00:00 8,9 2,7 - - 0,0
23.04.2018 15:00:00 9,4 4,0 - - 0,0
23.04.2018 14:00:00 8,7 4,6 - - 0,0
23.04.2018 13:00:00 8,1 5,1 - - 0,2
23.04.2018 12:00:00 9,0 5,3 - - 0,0
23.04.2018 11:00:00 9,0 4,0 - - 0,0
23.04.2018 10:00:00 7,8 5,6 8,2 6,7 0,2
23.04.2018 09:00:00 7,8 6,4 - - 0,4
23.04.2018 08:00:00 7,6 5,3 - - 0,0
23.04.2018 07:00:00 7,3 4,6 - - 0,0
23.04.2018 06:00:00 7,1 4,5 - - 0,0
23.04.2018 05:00:00 6,9 4,3 - - 0,2
23.04.2018 04:00:00 6,5 4,5 - - 0,0
23.04.2018 03:00:00 7,3 4,5 - - 0,0
23.04.2018 02:00:00 7,5 4,0 - - 0,0
23.04.2018 01:00:00 7,3 4,1 - - 0,0
23.04.2018 00:00:00 7,8 4,5 - - 0,0
22.04.2018 23:00:00 7,8 4,6 - - 0,0
22.04.2018 22:00:00 7,9 4,3 - - 0,0
22.04.2018 21:00:00 8,0 3,9 - - 0,0
22.04.2018 20:00:00 8,0 3,8 - - 0,0
22.04.2018 19:00:00 8,8 3,0 - - 0,0
22.04.2018 18:00:00 9,2 3,0 - - 0,0
22.04.2018 17:00:00 9,8 3,6 - - 0,0
22.04.2018 16:00:00 9,9 4,1 - - 0,0
22.04.2018 15:00:00 9,4 5,3 - - 0,0
22.04.2018 14:00:00 10,2 5,7 - - 0,0
22.04.2018 13:00:00 8,9 5,2 - - 0,0
22.04.2018 12:00:00 10,0 4,3 - - 0,0
22.04.2018 11:00:00 10,7 4,5 - - 0,0
22.04.2018 10:00:00 11,4 3,4 8,4 6,7 0,0
22.04.2018 09:00:00 11,6 6,2 - - 0,0
22.04.2018 08:00:00 11,2 7,5 - - 0,0
22.04.2018 07:00:00 11,4 6,8 - - 0,0
22.04.2018 06:00:00 10,7 10,6 - - 0,0
22.04.2018 05:00:00 4,1 3,1 - - 0,0
22.04.2018 04:00:00 4,0 3,3 - - 0,0
22.04.2018 03:00:00 3,5 2,5 - - 0,0
22.04.2018 02:00:00 3,6 2,7 - - 0,0
22.04.2018 01:00:00 3,7 2,7 - - 0,0
22.04.2018 00:00:00 5,0 3,5 - - 0,0
21.04.2018 23:00:00 5,7 3,7 - - 0,0
21.04.2018 22:00:00 7,4 4,0 - - 0,0
21.04.2018 21:00:00 8,2 4,4 - - 0,0
21.04.2018 20:00:00 11,0 5,0 - - 0,0
21.04.2018 19:00:00 13,4 4,6 - - 0,0
21.04.2018 18:00:00 14,5 4,8 - - 0,0
21.04.2018 17:00:00 14,5 4,7 - - 0,0
21.04.2018 16:00:00 14,1 4,2 - - 0,0
21.04.2018 15:00:00 13,7 3,9 - - 0,0
21.04.2018 14:00:00 13,5 4,5 - - 0,0
21.04.2018 13:00:00 13,3 5,3 - - 0,0
21.04.2018 12:00:00 11,1 4,3 - - 0,0
21.04.2018 11:00:00 10,6 3,8 - - 0,0
21.04.2018 10:00:00 8,2 3,9 8,2 6,4 0,0
21.04.2018 09:00:00 7,0 4,5 - - 0,0
21.04.2018 08:00:00 2,4 2,2 - - 0,0
21.04.2018 07:00:00 0,1 -0,2 - - 0,0
21.04.2018 06:00:00 0,9 0,7 - - 0,0
21.04.2018 05:00:00 -0,2 -0,7 - - 0,0
21.04.2018 04:00:00 0,7 0,3 - - 0,0
21.04.2018 03:00:00 1,3 0,8 - - 0,0
21.04.2018 02:00:00 1,6 0,7 - - 0,0
21.04.2018 01:00:00 3,9 2,3 - - 0,0
21.04.2018 00:00:00 5,9 3,1 - - 0,0
20.04.2018 23:00:00 5,8 3,9 - - 0,0
20.04.2018 22:00:00 6,7 4,6 - - 0,0
20.04.2018 21:00:00 7,4 4,7 - - 0,0
20.04.2018 20:00:00 7,8 5,2 - - 0,2
20.04.2018 19:00:00 8,8 6,0 - - 0,6
20.04.2018 18:00:00 8,6 5,7 - - 0,2
20.04.2018 17:00:00 12,0 4,1 - - 0,0
20.04.2018 16:00:00 12,1 3,6 - - 0,0
20.04.2018 15:00:00 12,8 4,8 - - 0,0
20.04.2018 14:00:00 12,7 4,9 - - 0,0
20.04.2018 13:00:00 12,0 4,8 - - 0,0
20.04.2018 12:00:00 12,8 4,9 - - 0,0
20.04.2018 11:00:00 12,2 4,3 - - 0,0
20.04.2018 10:00:00 12,1 4,8 8,7 6,0 0,0
20.04.2018 09:00:00 10,6 7,5 - - 0,0
20.04.2018 08:00:00 2,2 2,1 - - 0,0
20.04.2018 07:00:00 1,3 1,1 - - 0,0
20.04.2018 06:00:00 1,6 1,4 - - 0,0
20.04.2018 05:00:00 1,8 1,5 - - 0,0
20.04.2018 04:00:00 3,0 2,6 - - 0,0
20.04.2018 03:00:00 3,8 3,3 - - 0,0
20.04.2018 02:00:00 4,8 4,5 - - 0,0
20.04.2018 01:00:00 4,6 4,2 - - 0,0
20.04.2018 00:00:00 5,1 4,5 - - 0,0
19.04.2018 23:00:00 5,2 3,6 - - 0,0
19.04.2018 22:00:00 7,4 5,3 - - 0,0
19.04.2018 21:00:00 10,9 5,9 - - 0,0
19.04.2018 20:00:00 13,2 6,4 - - 0,0
19.04.2018 19:00:00 14,3 6,3 - - 0,0
19.04.2018 18:00:00 14,7 6,9 - - 0,0
19.04.2018 17:00:00 14,8 6,5 - - 0,0
19.04.2018 16:00:00 15,5 7,7 - - 0,0
19.04.2018 15:00:00 16,0 9,5 - - 0,0
19.04.2018 14:00:00 14,2 9,6 - - 0,0
19.04.2018 13:00:00 15,3 10,3 - - 0,0
19.04.2018 12:00:00 14,8 9,4 - - 0,0
19.04.2018 11:00:00 14,9 9,5 - - 0,0
19.04.2018 10:00:00 14,4 9,1 8,0 5,7 0,0
19.04.2018 09:00:00 14,0 9,0 - - 0,0
19.04.2018 08:00:00 - - - - 0,0
19.04.2018 07:00:00 - - - - -
19.04.2018 06:00:00 - - - - -
19.04.2018 05:00:00 - - - - -
19.04.2018 04:00:00 - - - - -
19.04.2018 03:00:00 - - - - -
19.04.2018 02:00:00 13,1 9,6 - - 0,0

tt = Température de l'air
td = dewpoint
tt -20cm = Température de l'air -20cm
tt -100cm = Température de l'air -100cm
rr = Quantités de précipitations

stations d'obs. à proximité